Location: Anumalkud?ru
(16.4847°N, 80.6636°E)
Time: 22:39:55
(UTC+00:00)

YAOGAN 1 - Pass Details

Date: 11 April 2026
Orbit: 604 x 606 km, 97.7° (Epoch: 9 May)

Event Time Altitude Azimuth Distance (km) Brightness Sun altitude
Rises 13:51:01 0° 188° (S) 2,849 5.9 -14.7°
Reaches altitude 10° 13:53:22 10° 198° (SSW) 1,947 5.2 -15.3°
Maximum altitude 13:57:07 31° 260° (W) 1,073 4.4 -16.1°
Drops below altitude 10° 14:00:52 10° 323° (NW) 1,950 5.9 -17.0°
Sets 14:03:14 0° 334° (NNW) 2,854 6.6 -17.5°
